Regional Weather Roundup
Issued by NWS

Home | Current Version | Previous Version | Graphics & Text | Print | Product List | Glossary On
Versions: 1 2 3 4 5 6 7 8 9 10 11 12 13 14 15 16 17 18 19 20 21 22 23 24 25 26 27 28 29 30 31 32 33 34 35 36 37 38 39 40 41 42 43 44 45 46 47 48 49 50
000
ASUS45 KBOU 262307
RWRCO

WEATHER ROUNDUP FOR COLORADO
NATIONAL WEATHER SERVICE DENVER/BOULDER CO
400 PM MST WED NOV 26 2014

NOTE: "FAIR" INDICATES FEW OR NO CLOUDS BELOW 12000 FEET WITH NO
SIGNIFICANT WEATHER AND/OR OBSTRUCTIONS TO VISIBILITY.

COZ001>005-013-030-031-270000-
...NORTHWEST COLORADO...

CITY           SKY/WX    TMP DP  RH WIND       PRES   REMARKS
CRAIG          PTCLDY    47  30  51 SW10      30.31R
HAYDEN         PTCLDY    46  27  46 W6        30.31S
MEEKER         CLEAR     45  29  53 NE5       30.34R
MOUNT WERNER   NOT AVBL
STEAMBOAT SPGS CLOUDY    40  30  69 E6        30.32S
WALDEN         PTCLDY    34  27  75 SW18      30.27R WCI  23
$$

COZ006>008-011-270000-
...WEST CENTRAL VALLEYS...

CITY           SKY/WX    TMP DP  RH WIND       PRES   REMARKS
GRAND JUNCTION CLEAR     48  22  35 NW7       30.36S
MONTROSE       CLEAR     52  26  36 NW8       30.37R
EAGLE          PTCLDY    46  28  49 W12       30.36R
RIFLE          CLEAR     45  26  47 NE6       30.37R
DELTA          CLEAR     55  24  31 S6        30.36R
NUCLA          CLEAR     52  25  35 NE3       30.41S
$$

COZ017>023-064>068-270000-
...SOUTHWEST COLORADO...

CITY           SKY/WX    TMP DP  RH WIND       PRES   REMARKS
DURANGO        CLEAR     53  23  31 SW7       30.33R
CORTEZ         CLEAR     53  21  28 W14       30.36R
PAGOSA SPRINGS CLEAR     49  18  28 SW3       30.38R
TELLURIDE      CLEAR     40  24  54 W8        30.46R
WOLF CREEK PAS CLEAR     32  12  43 MISG      30.49R
$$

COZ009-010-012-014-032>034-037-058>063-270000-
...CENTRAL COLORADO...

CITY           SKY/WX    TMP DP  RH WIND       PRES   REMARKS
ASPEN          CLEAR     37  26  64 CALM      30.37R
BUENA VISTA    CLEAR     45  20  36 NW17G23   30.27R
COPPER MTN     CLOUDY    27  21  80 W30G39    30.40R WCI  10
BERTHOUD PASS  NOT AVBL
COTTONWOOD PAS PTCLDY    41  18  38 SW18G36   30.31R
GUNNISON       CLEAR     43  25  49 W14G20    30.38R
KREMMLING      CLOUDY    41  27  56 W10       30.32S
LEADVILLE      CLEAR     32  20  61 NW17G24   30.37R WCI  21
MONARCH PASS   CLOUDY    23  23 100 MISG      30.47R
SALIDA         CLEAR     48  24  39 W17G31    30.34R
SUNLIGHT       CLEAR    N/A N/A N/A CALM      30.45R
WILKERSON PASS MOCLDY    34  14  44 SW3       30.36R
$$

COZ069>075-270000-
...SAN LUIS VALLEY/SANGRE DE CRISTO MOUNTAINS...

CITY           SKY/WX    TMP DP  RH WIND       PRES   REMARKS
ALAMOSA        CLEAR     48  19  31 SW8       30.32R
LA VETA PASS   CLEAR     34  21  60 S13G20    30.34S WCI  25
SAGUACHE       CLEAR     46  23  39 NW15G25   30.34R
$$

COZ035-036-038>040-270000-
...NORTHERN COLORADO FRONT RANGE...

CITY           SKY/WX    TMP DP  RH WIND       PRES   REMARKS
DENVER INTL AP PTCLDY    35  25  66 E16       30.18R WCI  25
DMNS CITY PARK   N/A     40  24  52 NE10      30.18R
AURORA         PTCLDY    36  24  62 E10       30.17R
FRONT RANGE AP NOT AVBL
ERIE MUNI ARPT PTCLDY    39  24  55 NE7       30.20R
BOULDER MUN AP PTCLDY    37  25  60 NE7       30.20R
CENTENNIAL     PTCLDY    46  24  42 CALM      30.15R
BROOMFIELD     PTCLDY    41  25  52 N10       30.18R
FORT COLLINS   CLEAR     37  23  56 E8        30.20S
LONGMONT       CLEAR     42  25  51 E6        30.21R
$$

COZ041-046-047-076>085-087-088-270000-
...PIKES PEAK/PALMER DIVIDE AND SOUTHERN FOOTHILLS...

CITY           SKY/WX    TMP DP  RH WIND       PRES   REMARKS
COLO. SPRINGS  MOCLDY    36  25  64 S7        30.22S
A. F. ACADEMY  PTCLDY    36  25  65 S8        30.20R
ELLICOTT       NOT AVBL
FALCON         NOT AVBL
FORT CARSON    CLEAR     37  25  62 SE13      30.21S
LIMON          CLEAR     37  23  56 SE14      30.21R
MONUMENT HILL  PTCLDY    39  27  60 SW9       30.18R
TRINIDAD       CLEAR     45  33  63 SE5       30.21R
$$

COZ042>045-048>051-090-091-270000-
...NORTHEAST COLORADO...

CITY           SKY/WX    TMP DP  RH WIND       PRES   REMARKS
GREELEY ARPT   CLEAR     36  21  55 SE13      30.21S
AKRON          CLEAR     29  23  78 SE7       30.24R WCI  22
BURLINGTON     MOCLDY    34  23  64 E3        30.28R
WRAY           CLOUDY    35  26  69 CALM      30.29R
STERLING       CLOUDY    34  30  86 SE3       30.26S
HOLYOKE        FLURRIES  34  28  80 CALM      30.30R
FORT MORGAN    CLEAR     32  23  71 E7        30.25R WCI  25
$$

COZ086-089-092>099-270000-
...SOUTHEAST COLORADO...

CITY           SKY/WX    TMP DP  RH WIND       PRES   REMARKS
PUEBLO         CLEAR     43  26  51 S6        30.22F
LA JUNTA       CLEAR     43  22  43 SE9       30.23S
LAMAR          CLEAR     44  22  41 E3        30.26R
SPRINGFIELD      N/A     41  22  46 S5        30.24F
$$



USA.gov is the U.S. government's official web portal to all federal, state and local government web resources and services.